TimeCST,TemperatureF,Dew PointF,Humidity,Sea Level PressureIn,VisibilityMPH,Wind Direction,Wind SpeedMPH,Gust SpeedMPH,PrecipitationIn,Events,Conditions,WindDirDegrees,DateUTC
12:15 AM,21.2,0.9,41,30.52,10.0,NNW,10.4,19.6,N/A,,Clear,340,2014-01-07 06:15:00
12:35 AM,20.8,1.2,43,30.52,10.0,NNW,12.7,17.3,N/A,,Clear,340,2014-01-07 06:35:00
12:55 AM,20.3,1.9,45,30.53,10.0,North,11.5,-,N/A,,Clear,350,2014-01-07 06:55:00
1:15 AM,20.3,2.3,46,30.54,10.0,NNW,8.1,-,N/A,,Clear,340,2014-01-07 07:15:00
1:35 AM,19.9,1.6,45,30.54,10.0,North,11.5,18.4,N/A,,Clear,350,2014-01-07 07:35:00
1:50 AM,19.4,-0.4,42,30.54,10.0,North,13.8,23.0,N/A,,Clear,350,2014-01-07 07:50:00
2:15 AM,19.2,0.9,45,30.54,10.0,North,10.4,-,N/A,,Clear,350,2014-01-07 08:15:00
2:35 AM,19.0,1.0,46,30.53,10.0,NNW,11.5,16.1,N/A,,Clear,340,2014-01-07 08:35:00
2:55 AM,18.5,0.7,46,30.53,10.0,North,10.4,16.1,N/A,,Clear,350,2014-01-07 08:55:00
3:15 AM,18.1,-0.0,45,30.53,10.0,North,8.1,18.4,N/A,,Clear,350,2014-01-07 09:15:00
3:35 AM,18.0,-0.4,45,30.53,10.0,North,10.4,-,N/A,,Clear,350,2014-01-07 09:35:00
3:55 AM,17.6,-0.2,46,30.53,10.0,North,6.9,-,N/A,,Clear,350,2014-01-07 09:55:00
4:15 AM,17.2,0.3,48,30.53,10.0,North,6.9,-,N/A,,Clear,360,2014-01-07 10:15:00
4:35 AM,17.1,-0.2,47,30.54,10.0,North,8.1,-,N/A,,Clear,350,2014-01-07 10:35:00
4:55 AM,17.1,-1.1,45,30.54,10.0,North,12.7,18.4,N/A,,Clear,360,2014-01-07 10:55:00
5:15 AM,16.9,-1.8,44,30.55,10.0,North,8.1,16.1,N/A,,Clear,350,2014-01-07 11:15:00
5:35 AM,16.7,-1.3,45,30.55,10.0,North,8.1,-,N/A,,Clear,360,2014-01-07 11:35:00
5:55 AM,16.5,1.0,51,30.56,10.0,NNW,9.2,-,N/A,,Clear,340,2014-01-07 11:55:00
6:15 AM,16.2,-0.2,49,30.56,10.0,North,6.9,-,N/A,,Clear,350,2014-01-07 12:15:00
6:35 AM,16.0,-0.0,49,30.58,10.0,North,6.9,-,N/A,,Clear,350,2014-01-07 12:35:00
6:55 AM,15.8,0.7,51,30.59,10.0,NNW,5.8,-,N/A,,Clear,340,2014-01-07 12:55:00
7:15 AM,16.2,1.0,51,30.60,10.0,NNW,6.9,-,N/A,,Clear,340,2014-01-07 13:15:00
7:35 AM,16.3,0.3,49,30.61,10.0,North,9.2,-,N/A,,Clear,350,2014-01-07 13:35:00
7:55 AM,16.7,0.1,48,30.61,10.0,NNW,8.1,-,N/A,,Clear,330,2014-01-07 13:55:00
8:15 AM,16.5,-0.6,47,30.62,10.0,North,9.2,-,N/A,,Clear,350,2014-01-07 14:15:00
8:35 AM,17.1,-0.4,46,30.61,10.0,NNE,10.4,-,N/A,,Clear,20,2014-01-07 14:35:00
8:55 AM,18.0,-0.9,44,30.63,10.0,NNW,6.9,-,N/A,,Clear,340,2014-01-07 14:55:00
9:15 AM,19.0,-0.8,42,30.63,10.0,North,11.5,-,N/A,,Clear,10,2014-01-07 15:15:00
9:35 AM,19.2,-1.3,41,30.62,10.0,NNW,8.1,-,N/A,,Clear,340,2014-01-07 15:35:00
9:55 AM,21.0,0.1,40,30.61,10.0,NNE,6.9,-,N/A,,Clear,20,2014-01-07 15:55:00
10:15 AM,20.8,-0.4,40,30.61,10.0,NNE,10.4,-,N/A,,Clear,30,2014-01-07 16:15:00
10:35 AM,22.3,-0.8,37,30.59,10.0,NE,8.1,-,N/A,,Clear,40,2014-01-07 16:35:00
10:55 AM,24.4,-0.0,35,30.59,10.0,NNW,10.4,-,N/A,,Clear,330,2014-01-07 16:55:00
11:15 AM,24.4,0.1,35,30.57,10.0,North,9.2,-,N/A,,Clear,350,2014-01-07 17:15:00
11:35 AM,24.6,0.3,35,30.56,10.0,North,11.5,-,N/A,,Clear,10,2014-01-07 17:35:00
11:55 AM,24.6,-0.0,34,30.54,10.0,NNE,8.1,-,N/A,,Clear,20,2014-01-07 17:55:00
12:15 PM,26.1,0.7,34,30.52,10.0,North,9.2,-,N/A,,Clear,360,2014-01-07 18:15:00
12:35 PM,28.0,1.6,32,30.51,10.0,NNW,6.9,-,N/A,,Clear,340,2014-01-07 18:35:00
12:55 PM,28.9,2.5,32,30.51,10.0,NNE,10.4,16.1,N/A,,Clear,20,2014-01-07 18:55:00
1:15 PM,28.4,2.3,33,30.51,10.0,North,8.1,16.1,N/A,,Clear,350,2014-01-07 19:15:00
1:35 PM,29.3,2.3,32,30.51,10.0,North,5.8,-,N/A,,Clear,360,2014-01-07 19:35:00
1:55 PM,29.7,1.4,30,30.51,10.0,North,9.2,-,N/A,,Clear,10,2014-01-07 19:55:00
2:15 PM,29.8,2.1,31,30.51,10.0,NNE,6.9,-,N/A,,Clear,20,2014-01-07 20:15:00
2:35 PM,29.7,2.3,31,30.51,10.0,NW,8.1,-,N/A,,Clear,320,2014-01-07 20:35:00
2:55 PM,31.1,1.8,29,30.51,10.0,NNW,5.8,-,N/A,,Clear,340,2014-01-07 20:55:00
3:15 PM,30.2,1.6,30,30.51,10.0,NNE,6.9,-,N/A,,Clear,20,2014-01-07 21:15:00
3:35 PM,30.7,1.6,29,30.52,10.0,NW,6.9,-,N/A,,Clear,310,2014-01-07 21:35:00
3:50 PM,30.7,1.9,29,30.52,10.0,North,5.8,-,N/A,,Clear,10,2014-01-07 21:50:00
4:15 PM,29.8,1.8,30,30.52,10.0,North,6.9,-,N/A,,Clear,10,2014-01-07 22:15:00
4:35 PM,28.9,1.9,32,30.52,10.0,North,10.4,-,N/A,,Clear,360,2014-01-07 22:35:00
4:55 PM,28.0,2.8,34,30.52,10.0,North,5.8,-,N/A,,Clear,360,2014-01-07 22:55:00
5:15 PM,27.7,3.9,36,30.52,10.0,North,6.9,-,N/A,,Clear,360,2014-01-07 23:15:00
5:35 PM,27.5,4.6,38,30.53,10.0,NNE,3.5,-,N/A,,Clear,20,2014-01-07 23:35:00
5:55 PM,27.5,5.5,39,30.53,10.0,NNE,3.5,-,N/A,,Clear,30,2014-01-07 23:55:00
6:15 PM,27.1,7.0,43,30.53,10.0,North,3.5,-,N/A,,Clear,10,2014-01-08 00:15:00
6:35 PM,27.1,6.6,42,30.53,10.0,North,4.6,-,N/A,,Clear,10,2014-01-08 00:35:00
6:55 PM,27.0,6.6,42,30.53,10.0,North,3.5,-,N/A,,Clear,10,2014-01-08 00:55:00
7:15 PM,26.6,6.4,42,30.54,10.0,North,4.6,-,N/A,,Clear,360,2014-01-08 01:15:00
7:35 PM,26.2,6.8,44,30.54,10.0,North,3.5,-,N/A,,Clear,360,2014-01-08 01:35:00
7:55 PM,25.5,7.3,46,30.54,10.0,North,4.6,-,N/A,,Clear,360,2014-01-08 01:55:00
8:15 PM,25.5,7.0,45,30.54,10.0,North,4.6,-,N/A,,Clear,10,2014-01-08 02:15:00
8:35 PM,25.2,7.7,48,30.53,10.0,North,6.9,-,N/A,,Clear,10,2014-01-08 02:35:00
8:55 PM,24.8,8.2,49,30.53,10.0,North,4.6,-,N/A,,Clear,10,2014-01-08 02:55:00
9:15 PM,24.4,8.6,51,30.52,10.0,North,6.9,-,N/A,,Clear,10,2014-01-08 03:15:00
9:35 PM,24.3,8.4,51,30.52,10.0,NNE,5.8,-,N/A,,Clear,20,2014-01-08 03:35:00
9:55 PM,24.3,8.1,50,30.51,10.0,NNE,6.9,-,N/A,,Clear,20,2014-01-08 03:55:00
10:15 PM,23.9,8.4,52,30.49,10.0,NNE,9.2,-,N/A,,Clear,30,2014-01-08 04:15:00
10:35 PM,23.9,7.7,50,30.48,10.0,NE,9.2,-,N/A,,Clear,40,2014-01-08 04:35:00
10:55 PM,23.5,8.4,53,30.49,10.0,NE,8.1,-,N/A,,Clear,50,2014-01-08 04:55:00
11:15 PM,23.0,7.9,52,30.49,10.0,NE,6.9,-,N/A,,Clear,40,2014-01-08 05:15:00
11:35 PM,22.6,8.2,54,30.49,10.0,NE,5.8,-,N/A,,Clear,40,2014-01-08 05:35:00
11:50 PM,22.3,8.4,55,30.49,10.0,NNE,4.6,-,N/A,,Clear,20,2014-01-08 05:50:00